![]() |
EMODnet Physics ERDDAP
Easier access to scientific data |
log in|
Brought to you by EMODnet Physics |
| Dataset Title: | NDBC - Collection of dew point temperature (DEWT) TimeSeries - IN SITU MultiPointTimeSeriesObservation
|
| Institution: | NDBC (Dataset ID: TS_DEWT_NDBC) |
| Information: | Summary
| License
| FGDC
| ISO 19115
| Metadata
| Background
| Subset
| Data Access Form
| Make a graph
|
| Name | Last modified | Size | Description | |
|---|---|---|---|---|
| Parent Directory | - | - | ||
| PTGC1_TS_DEWT_012000.nc | 30-Dec-2024 06:09 | 429503 | ||
| PTGC1_TS_DEWT_012002.nc | 30-Dec-2024 06:13 | 994907 | ||
| PTGC1_TS_DEWT_012003.nc | 30-Dec-2024 06:16 | 992586 | ||
| PTGC1_TS_DEWT_012004.nc | 30-Dec-2024 06:18 | 433637 | ||
| PTGC1_TS_DEWT_021989.nc | 30-Dec-2024 05:47 | 435305 | ||
| PTGC1_TS_DEWT_021990.nc | 30-Dec-2024 05:49 | 437423 | ||
| PTGC1_TS_DEWT_022000.nc | 30-Dec-2024 06:09 | 425812 | ||
| PTGC1_TS_DEWT_022002.nc | 30-Dec-2024 06:14 | 436811 | ||
| PTGC1_TS_DEWT_022003.nc | 30-Dec-2024 06:16 | 429777 | ||
| PTGC1_TS_DEWT_022004.nc | 30-Dec-2024 06:18 | 994935 | ||
| PTGC1_TS_DEWT_031989.nc | 30-Dec-2024 05:47 | 908417 | ||
| PTGC1_TS_DEWT_031990.nc | 30-Dec-2024 05:49 | 429605 | ||
| PTGC1_TS_DEWT_032000.nc | 30-Dec-2024 06:10 | 434658 | ||
| PTGC1_TS_DEWT_032002.nc | 30-Dec-2024 06:14 | 436267 | ||
| PTGC1_TS_DEWT_032003.nc | 30-Dec-2024 06:16 | 424308 | ||
| PTGC1_TS_DEWT_032004.nc | 30-Dec-2024 06:18 | 433307 | ||
| PTGC1_TS_DEWT_032026.nc | 26-Mar-2026 06:43 | 429493 | ||
| PTGC1_TS_DEWT_041989.nc | 30-Dec-2024 05:47 | 994824 | ||
| PTGC1_TS_DEWT_041990.nc | 30-Dec-2024 05:49 | 913917 | ||
| PTGC1_TS_DEWT_041993.nc | 30-Dec-2024 05:55 | 429813 | ||
| PTGC1_TS_DEWT_041997.nc | 30-Dec-2024 06:03 | 433442 | ||
| PTGC1_TS_DEWT_041999.nc | 30-Dec-2024 06:08 | 436598 | ||
| PTGC1_TS_DEWT_042000.nc | 30-Dec-2024 06:10 | 426163 | ||
| PTGC1_TS_DEWT_042001.nc | 30-Dec-2024 06:12 | 432476 | ||
| PTGC1_TS_DEWT_042002.nc | 30-Dec-2024 06:14 | 423300 | ||
| PTGC1_TS_DEWT_051989.nc | 30-Dec-2024 05:47 | 1143130 | ||
| PTGC1_TS_DEWT_051990.nc | 30-Dec-2024 05:50 | 1142983 | ||
| PTGC1_TS_DEWT_051991.nc | 30-Dec-2024 05:51 | 429781 | ||
| PTGC1_TS_DEWT_051993.nc | 30-Dec-2024 05:56 | 429930 | ||
| PTGC1_TS_DEWT_051997.nc | 30-Dec-2024 06:03 | 436478 | ||
| PTGC1_TS_DEWT_051999.nc | 30-Dec-2024 06:08 | 426452 | ||
| PTGC1_TS_DEWT_052000.nc | 30-Dec-2024 06:10 | 430727 | ||
| PTGC1_TS_DEWT_052001.nc | 30-Dec-2024 06:12 | 600097 | ||
| PTGC1_TS_DEWT_052002.nc | 30-Dec-2024 06:14 | 1143316 | ||
| PTGC1_TS_DEWT_061989.nc | 30-Dec-2024 05:48 | 1143111 | ||
| PTGC1_TS_DEWT_061990.nc | 30-Dec-2024 05:50 | 429145 | ||
| PTGC1_TS_DEWT_061991.nc | 30-Dec-2024 05:52 | 429209 | ||
| PTGC1_TS_DEWT_061993.nc | 30-Dec-2024 05:56 | 435679 | ||
| PTGC1_TS_DEWT_061999.nc | 30-Dec-2024 06:08 | 426122 | ||
| PTGC1_TS_DEWT_062000.nc | 30-Dec-2024 06:10 | 427209 | ||
| PTGC1_TS_DEWT_062001.nc | 30-Dec-2024 06:12 | 994825 | ||
| PTGC1_TS_DEWT_062002.nc | 30-Dec-2024 06:14 | 994880 | ||
| PTGC1_TS_DEWT_071989.nc | 30-Dec-2024 05:48 | 991727 | ||
| PTGC1_TS_DEWT_071991.nc | 30-Dec-2024 05:52 | 429814 | ||
| PTGC1_TS_DEWT_071993.nc | 30-Dec-2024 05:56 | 434880 | ||
| PTGC1_TS_DEWT_071999.nc | 30-Dec-2024 06:08 | 435872 | ||
| PTGC1_TS_DEWT_072000.nc | 30-Dec-2024 06:10 | 430610 | ||
| PTGC1_TS_DEWT_072001.nc | 30-Dec-2024 06:12 | 427952 | ||
| PTGC1_TS_DEWT_072002.nc | 30-Dec-2024 06:15 | 418935 | ||
| PTGC1_TS_DEWT_081989.nc | 30-Dec-2024 05:48 | 1143238 | ||
| PTGC1_TS_DEWT_081993.nc | 30-Dec-2024 05:56 | 1143311 | ||
| PTGC1_TS_DEWT_081994.nc | 30-Dec-2024 05:58 | 992062 | ||
| PTGC1_TS_DEWT_081999.nc | 30-Dec-2024 06:08 | 429524 | ||
| PTGC1_TS_DEWT_082001.nc | 30-Dec-2024 06:13 | 434723 | ||
| PTGC1_TS_DEWT_082002.nc | 30-Dec-2024 06:15 | 434750 | ||
| PTGC1_TS_DEWT_082003.nc | 30-Dec-2024 06:17 | 429777 | ||
| PTGC1_TS_DEWT_091989.nc | 30-Dec-2024 05:48 | 427665 | ||
| PTGC1_TS_DEWT_091999.nc | 30-Dec-2024 06:09 | 994674 | ||
| PTGC1_TS_DEWT_092001.nc | 30-Dec-2024 06:13 | 994313 | ||
| PTGC1_TS_DEWT_092002.nc | 30-Dec-2024 06:15 | 994610 | ||
| PTGC1_TS_DEWT_092003.nc | 30-Dec-2024 06:17 | 429716 | ||
| PTGC1_TS_DEWT_101995.nc | 30-Dec-2024 06:00 | 436269 | ||
| PTGC1_TS_DEWT_101999.nc | 30-Dec-2024 06:09 | 434848 | ||
| PTGC1_TS_DEWT_102001.nc | 30-Dec-2024 06:13 | 430828 | ||
| PTGC1_TS_DEWT_102002.nc | 30-Dec-2024 06:15 | 429714 | ||
| PTGC1_TS_DEWT_102003.nc | 30-Dec-2024 06:17 | 1143197 | ||
| PTGC1_TS_DEWT_111998.nc | 30-Dec-2024 06:07 | 1142759 | ||
| PTGC1_TS_DEWT_111999.nc | 30-Dec-2024 06:09 | 906888 | ||
| PTGC1_TS_DEWT_112001.nc | 30-Dec-2024 06:13 | 1625685 | ||
| PTGC1_TS_DEWT_112002.nc | 30-Dec-2024 06:15 | 1475495 | ||
| PTGC1_TS_DEWT_112003.nc | 30-Dec-2024 06:17 | 1477257 | ||
| PTGC1_TS_DEWT_121998.nc | 30-Dec-2024 06:07 | 1626628 | ||
| PTGC1_TS_DEWT_121999.nc | 30-Dec-2024 06:09 | 1473074 | ||
| PTGC1_TS_DEWT_122001.nc | 30-Dec-2024 06:13 | 1468849 | ||
| PTGC1_TS_DEWT_122002.nc | 30-Dec-2024 06:15 | 1470010 | ||
| PTGC1_TS_DEWT_122003.nc | 30-Dec-2024 06:18 | 1464553 | ||